Wind_Speed
39 41 42 46 44 46 48 51 43 40 36 35 29 28 29 28 30 27 25 25 24 25
38 43 41 49 47 52 52 47 46 44 40 32 31 31 31 31 29 28 29 28 28 28
36 37 37 43 54 51 50 49 47 43 40 36 32 32 31 32 31 30 31 30 31 30
37 37 37 42 46 50 52 53 48 45 43 35 36 34 33 34 33 33 32 33 31 32
39 37 38 40 43 47 47 50 53 53 47 38 34 36 35 36 36 34 35 34 34 34
37 41 41 39 39 41 46 48 54 53 54 47 42 40 42 39 37 37 37 36 36 38
39 42 44 41 40 39 38 46 48 51 49 50 46 42 41 41 38 38 38 37 39 39
31 37 39 42 43 40 37 37 42 41 45 45 44 41 36 35 36 35 35 35 36 38
34 33 35 36 39 41 42 41 40 40 41 43 41 40 41 38 36 34 34 35 36 39
37 39 38 37 38 39 41 42 43 42 42 42 41 43 39 37 38 40 40 42 42 43
36 37 39 38 39 40 39 40 39 41 41 39 39 38 37 36 38 38 42 45 38 33
36 35 35 36 37 36 35 35 38 41 40 40 40 39 36 34 35 39 32 30 25 22
32 33 33 32 32 34 39 41 39 39 37 37 36 36 36 37 38 35 25 20 16 13
28 29 33 34 37 40 39 39 38 38 37 35 34 30 30 30 22 20 19 16 15 13
Wind_Direction
202 203 201 195 191 191 193 195 201 211 212 203 211 205 210 210 218 232 238 234 237 242
205 207 206 200 198 198 201 206 203 208 208 211 218 222 217 221 228 234 240 239 240 246
206 209 210 209 206 208 211 211 208 209 214 219 221 224 226 228 233 238 241 242 248 252
207 209 208 208 211 216 213 211 213 212 213 221 224 228 229 233 236 238 241 245 248 256
211 212 213 213 217 220 218 214 218 216 214 216 231 234 235 234 238 240 243 250 254 264
206 208 213 216 218 223 223 221 221 222 223 225 232 235 241 240 241 246 249 256 261 262
210 210 211 213 218 219 222 219 226 226 224 226 231 237 237 240 244 249 254 259 261 261
217 215 215 215 219 217 220 223 223 225 224 227 229 230 233 236 242 250 252 255 256 259
215 219 222 218 219 219 220 222 222 223 222 224 228 233 241 247 241 243 248 250 252 253
212 213 215 218 219 221 219 222 225 227 230 232 236 240 240 237 242 247 253 253 257 258
215 217 215 213 217 220 222 224 224 226 228 227 227 229 232 237 243 247 251 253 251 254
215 217 216 216 216 216 217 220 218 218 219 221 224 228 231 235 244 250 248 247 245 245
218 219 217 219 218 215 214 214 213 217 214 223 227 232 235 242 247 252 235 222 214 205
215 213 212 215 215 218 218 219 214 212 213 221 226 229 238 240 224 219 202 185 171 168
Height
1448 1451 1456 1462 1466 1472 1477 1482 1489 1495 1500 1505 1508 1511 1516 1518 1521 1525 1527 1529 1531 1533
1443 1448 1453 1459 1464 1468 1473 1479 1487 1493 1498 1501 1504 1508 1511 1513 1516 1519 1521 1523 1525 1526
1438 1443 1450 1455 1460 1465 1471 1477 1482 1488 1492 1496 1500 1503 1505 1508 1510 1513 1514 1516 1517 1520
1435 1439 1445 1449 1454 1460 1466 1471 1476 1481 1486 1490 1494 1497 1500 1502 1504 1506 1507 1509 1512 1513
1431 1436 1440 1443 1448 1453 1458 1465 1470 1476 1481 1485 1488 1491 1494 1496 1498 1500 1502 1503 1505 1505
1423 1429 1433 1438 1443 1448 1453 1457 1464 1469 1473 1477 1482 1485 1487 1490 1492 1494 1495 1496 1497 1497
1416 1421 1426 1432 1438 1443 1447 1452 1455 1460 1466 1470 1475 1478 1480 1483 1485 1487 1489 1490 1490 1491
1411 1416 1422 1428 1433 1438 1442 1446 1451 1455 1459 1463 1468 1470 1473 1476 1478 1480 1482 1483 1483 1483
1407 1412 1416 1420 1425 1431 1435 1440 1445 1448 1452 1456 1459 1462 1465 1468 1471 1474 1474 1475 1474 1473
1403 1405 1408 1415 1419 1421 1425 1431 1435 1440 1445 1448 1452 1453 1457 1461 1462 1464 1464 1465 1464 1463
1398 1401 1404 1408 1412 1416 1419 1421 1426 1431 1438 1441 1441 1444 1448 1452 1454 1455 1454 1453 1452 1452
1391 1396 1401 1404 1407 1411 1416 1419 1421 1422 1427 1430 1433 1436 1440 1443 1445 1445 1443 1443 1443 1444
1386 1391 1395 1399 1404 1405 1405 1407 1411 1417 1422 1426 1429 1431 1433 1435 1435 1435 1435 1436 1437 1439
1382 1384 1386 1391 1394 1397 1401 1404 1406 1411 1415 1418 1420 1421 1424 1425 1427 1428 1429 1433 1435 1437